Wind_Speed
3 2 2 6 10 13 15 14 14 15 17 17 18 17 20 21 22 23 23 23 24 25 24 24 25 25 27 30 32 33 35 37 41 44 48 51 53 55 57 59 61 64 67 71 75 79 81
9 8 6 4 2 2 3 4 5 6 5 5 5 6 8 8 7 7 7 7 8 8 10 12 15 18 21 27 30 30 33 37 41 45 48 52 54 56 57 61 63 66 67 69 71 73 75
13 9 8 8 9 9 10 10 10 10 9 9 9 9 10 11 11 11 12 12 13 14 16 18 22 23 25 30 35 37 40 41 42 44 47 50 53 55 57 60 63 66 68 70 72 76 78
19 19 19 19 18 17 17 17 17 18 18 16 14 14 15 15 14 13 13 14 16 18 20 23 27 31 34 35 38 42 43 46 47 49 50 53 56 59 62 66 68 70 72 76 75 79 80
16 15 14 16 16 17 19 22 22 19 17 16 16 16 15 14 13 13 14 15 18 23 25 27 31 36 38 38 39 40 41 44 46 48 51 55 58 63 67 70 72 75 80 81 84 84 86
16 15 15 17 18 21 21 19 18 17 16 17 17 16 16 14 13 13 16 21 25 27 28 30 35 38 38 35 34 35 38 43 46 48 50 52 53 55 60 64 70 71 76 82 85 88 88
15 15 18 17 19 17 17 16 16 16 16 16 15 15 13 12 11 17 23 26 28 31 35 36 39 40 39 37 37 38 37 37 38 39 43 49 54 58 60 64 69 74 79 83 86 86 86
11 11 14 14 14 13 14 13 13 14 15 15 14 13 14 14 17 21 26 30 32 36 40 42 39 39 35 32 29 30 35 39 42 45 47 50 53 55 58 60 66 72 79 84 86 86 82
8 8 11 11 12 11 11 11 12 12 13 13 12 13 13 16 17 23 29 33 35 40 44 41 38 36 36 35 35 36 38 39 41 42 43 44 46 48 51 54 59 67 70 73 74 76 75
6 7 7 8 8 8 8 9 9 10 11 11 11 13 16 17 19 26 33 37 39 44 45 42 38 35 33 34 33 30 31 35 37 39 41 44 47 49 52 55 60 65 66 63 60 62 63
4 4 4 3 5 6 6 5 7 7 8 11 11 11 15 16 21 27 34 39 41 44 44 43 36 35 34 33 34 37 40 44 49 50 52 53 53 55 57 58 61 62 61 56 51 53 53
7 2 3 4 1 3 2 3 4 4 5 9 11 12 14 15 22 28 36 40 41 43 42 38 36 36 36 39 40 41 43 48 54 57 60 64 64 64 65 66 62 58 56 46 43 45 43
7 5 4 6 7 4 2 1 1 1 4 6 10 13 15 15 23 29 36 40 42 43 45 41 37 38 40 39 40 41 48 55 60 65 70 71 75 73 71 69 63 58 54 50 44 38 40
7 7 4 6 9 9 6 4 2 2 3 7 10 12 15 16 23 28 35 39 40 42 45 46 42 36 39 41 45 48 52 59 63 69 74 78 82 83 81 76 68 62 54 45 38 36 35
10 9 8 6 9 11 10 8 5 5 3 6 10 12 15 16 21 27 33 38 41 44 46 47 49 41 39 48 50 52 56 60 64 70 77 83 88 88 90 85 76 70 60 50 42 33 29
13 11 11 10 8 14 14 12 8 8 3 5 9 12 15 16 20 25 32 37 42 44 47 47 49 51 45 48 51 57 61 63 67 73 79 84 90 93 95 92 85 80 68 60 52 45 38
14 13 11 12 12 11 17 15 13 11 7 6 8 12 13 16 19 23 30 35 40 45 48 51 49 50 51 47 53 58 61 67 71 75 80 83 89 97 99 98 91 83 79 70 55 49 44
17 13 12 12 12 13 15 18 17 15 11 8 9 11 13 15 17 22 27 33 39 45 49 52 51 50 52 52 49 58 63 67 73 78 82 86 89 92 98 101 98 93 83 77 71 61 51
17 13 11 13 12 13 14 21 19 17 15 11 9 10 13 14 16 21 26 31 37 43 48 51 54 51 53 54 53 54 62 68 73 79 84 88 91 95 101 105 107 105 95 85 77 66 57
21 18 15 16 15 15 16 20 22 19 17 12 9 10 12 14 14 20 24 30 35 41 47 51 55 54 53 55 57 57 62 67 73 79 84 88 92 95 99 102 106 109 103 93 86 74 65
21 20 20 17 18 18 18 18 24 22 20 15 12 12 12 14 15 19 23 28 34 39 45 49 54 56 55 55 57 60 62 66 72 77 83 88 94 97 100 101 105 109 109 104 93 83 74
26 24 22 23 22 22 21 20 25 25 22 18 15 14 14 15 15 18 22 27 32 37 43 49 54 56 57 57 59 61 63 66 71 75 81 86 91 96 100 104 106 108 110 109 103 92 81
23 25 25 27 23 23 23 22 23 28 25 22 17 16 14 15 15 18 22 27 31 37 42 47 52 56 59 58 60 63 63 65 71 75 80 84 88 93 98 101 105 107 112 112 110 105 91
27 29 28 21 19 23 23 23 22 28 27 23 20 17 15 15 15 18 21 25 31 35 40 45 50 55 57 58 61 64 63 64 68 73 78 82 86 91 95 100 105 109 110 113 112 111 104
29 29 25 19 19 22 23 22 22 22 29 26 23 19 16 16 17 20 21 24 30 34 39 44 49 53 56 57 60 63 65 65 67 71 76 81 85 90 93 98 103 107 108 111 112 113 110
30 25 22 18 18 19 21 21 21 20 25 26 24 21 18 16 17 20 22 24 29 33 39 44 48 52 54 57 61 63 67 68 68 70 75 79 83 87 92 96 100 104 106 108 109 111 112
28 24 22 20 20 20 20 21 20 20 23 25 25 22 18 16 17 20 23 24 29 34 38 43 46 51 54 55 59 60 65 66 68 71 75 78 80 85 88 93 97 101 104 107 109 110 114
26 23 21 21 22 22 22 23 22 21 22 26 25 21 19 17 17 20 22 24 28 33 38 42 45 49 52 54 57 59 63 65 66 70 75 78 80 83 86 90 94 98 102 107 109 110 110
23 23 20 21 22 23 23 22 23 23 22 27 27 23 20 18 18 21 22 23 27 33 39 42 44 48 51 53 55 59 64 65 66 68 72 77 82 83 86 89 93 96 100 103 105 109 110
Wind_Direction
17 304 259 249 247 248 254 256 254 256 258 260 261 259 262 268 272 274 277 280 281 281 282 284 286 287 288 287 284 283 281 280 279 278 278 277 276 276 275 274 272 270 267 266 264 262 259
59 75 87 102 140 198 222 227 226 233 239 252 270 279 288 300 312 314 323 333 333 342 349 341 329 319 312 306 301 295 289 286 284 283 283 282 283 282 280 277 276 274 272 270 268 266 264
55 67 76 80 85 92 99 102 103 101 95 88 84 83 77 66 58 52 52 44 18 2 355 341 327 318 311 303 298 293 288 286 285 285 285 284 284 283 282 280 279 276 272 270 269 266 264
63 68 77 80 85 91 92 93 93 92 91 87 77 70 68 64 64 56 39 26 10 356 346 338 330 323 315 303 296 294 292 291 289 287 286 285 283 283 281 280 278 275 273 271 267 265 263
53 60 69 78 83 89 90 93 90 83 79 73 73 67 59 54 41 35 22 6 353 344 342 339 332 326 318 308 300 295 292 291 289 285 282 281 280 281 281 280 277 276 276 273 271 267 265
50 61 72 85 90 92 93 91 86 82 78 72 64 54 51 43 39 31 9 2 352 349 346 342 337 331 325 319 312 304 299 299 299 299 297 293 289 285 282 282 283 280 277 275 272 268 264
46 72 78 87 95 82 89 89 85 75 70 64 58 53 44 35 32 14 9 4 3 1 353 346 340 332 334 329 322 316 316 312 305 304 307 306 305 301 298 295 291 288 284 281 278 273 269
43 82 82 85 87 82 89 87 76 69 63 60 57 48 35 29 23 20 17 11 6 0 354 348 345 342 342 340 337 330 331 329 325 320 313 309 308 304 298 293 290 285 283 282 282 282 281
42 99 87 80 83 77 88 81 68 62 62 56 48 34 30 22 23 19 17 12 5 1 357 356 358 359 358 353 350 342 337 330 325 320 314 313 312 314 310 306 299 292 286 284 283 279 276
47 120 108 71 73 82 76 78 64 62 51 47 47 36 26 28 23 20 17 11 6 4 1 5 5 2 5 6 359 351 349 350 347 340 339 338 337 333 330 325 317 309 303 300 294 288 283
33 138 151 86 81 90 67 80 60 63 49 47 39 27 25 26 19 21 17 12 9 5 8 7 11 15 19 21 24 20 14 13 7 3 3 359 354 351 346 338 330 320 315 311 304 296 290
14 283 237 229 180 136 77 67 47 41 33 30 36 24 18 22 18 20 19 14 10 8 12 10 14 15 15 15 18 14 13 12 12 14 15 10 6 1 358 351 341 332 327 322 312 301 294
346 358 250 244 236 216 215 35 22 360 13 41 16 15 13 17 17 20 19 15 11 9 13 16 13 18 19 16 18 15 17 18 16 14 16 14 12 9 5 1 353 351 342 334 325 313 304
319 317 321 244 238 231 227 229 228 220 60 46 16 12 9 10 14 18 19 16 12 8 9 17 18 14 19 21 19 21 21 22 19 19 20 17 14 12 8 3 359 358 352 344 340 324 315
308 301 294 282 238 230 234 228 222 202 119 35 9 5 4 3 10 16 18 16 13 10 11 15 18 20 20 20 22 23 22 23 23 20 19 19 17 15 13 9 6 5 2 354 347 340 329
297 301 287 275 258 233 228 226 222 214 243 348 357 359 2 359 3 13 14 14 13 13 11 12 18 19 18 21 21 23 23 24 24 23 22 20 20 18 16 13 11 10 8 6 0 353 352
308 286 302 286 258 250 227 224 220 215 235 294 337 352 351 358 359 6 10 12 11 14 13 14 14 18 17 20 22 23 24 24 25 25 24 23 21 20 19 17 15 16 11 10 8 3 357
302 294 280 310 258 260 232 222 221 226 235 274 310 337 345 355 355 359 6 8 9 11 11 13 13 13 17 17 19 22 23 23 23 25 25 24 22 23 22 20 19 19 17 16 13 11 7
292 273 284 315 281 260 247 224 223 223 232 257 295 321 339 346 352 352 360 5 9 11 10 12 12 11 12 15 15 18 21 23 23 24 24 23 24 22 23 23 21 20 20 19 17 14 13
277 279 277 284 296 256 250 232 223 223 226 245 283 303 328 336 343 345 353 360 7 9 9 8 11 11 11 13 13 17 19 22 23 23 24 25 24 24 25 25 24 22 21 21 20 18 16
280 272 272 281 295 265 247 240 224 221 226 239 261 293 307 325 333 339 348 353 2 7 7 6 8 10 11 11 13 13 16 18 22 23 23 25 25 26 26 26 26 24 23 22 22 20 20
282 270 272 280 281 270 248 237 227 222 226 235 248 281 293 315 322 333 342 347 355 1 6 5 6 9 10 12 11 11 13 16 20 22 23 24 26 26 25 26 27 27 25 24 23 21 21
269 272 278 282 276 256 249 239 232 223 227 234 245 267 284 305 313 323 335 341 348 357 1 4 3 6 10 10 10 9 10 15 17 20 21 23 24 25 26 26 26 26 26 25 25 23 21
274 280 287 278 259 246 247 239 235 227 228 236 244 259 280 298 305 312 324 336 343 351 356 0 2 4 7 9 8 9 10 10 16 18 20 21 22 24 24 25 26 26 25 24 25 25 23
281 289 289 270 247 245 245 238 236 236 228 233 241 253 274 290 299 304 316 332 338 345 351 354 1 3 5 6 7 7 9 10 11 14 17 20 19 21 23 23 24 25 25 25 25 26 26
285 284 286 258 244 243 241 238 242 242 227 229 238 249 269 282 297 300 310 327 334 340 347 350 358 360 3 4 5 6 6 8 8 10 13 17 17 19 20 21 23 24 24 24 26 25 27
282 282 279 254 246 243 240 240 242 246 227 226 233 246 263 279 297 294 306 321 329 335 341 347 354 357 360 3 3 6 5 5 7 8 9 12 16 16 18 20 19 21 22 22 23 23 25
282 280 271 259 247 241 239 239 243 246 233 226 229 242 258 271 287 293 306 316 324 330 336 342 349 353 356 0 2 4 4 5 5 6 6 8 12 15 16 17 18 18 19 20 20 22 22
282 278 267 262 249 239 242 242 244 247 240 228 230 240 254 268 279 288 301 310 320 326 329 336 343 348 352 355 1 1 4 4 5 6 6 6 7 11 13 14 15 16 17 17 18 18 20
Height
10652 10652 10652 10653 10654 10655 10656 10657 10658 10659 10660 10661 10662 10662 10663 10663 10662 10662 10662 10661 10661 10660 10658 10655 10653 10651 10646 10639 10637 10634 10630 10624 10619 10614 10610 10606 10602 10599 10597 10593 10590 10586 10585 10581 10581 10581 10582
10653 10652 10652 10652 10652 10653 10653 10654 10656 10657 10658 10658 10659 10660 10660 10661 10661 10660 10660 10659 10658 10657 10655 10651 10648 10645 10641 10634 10629 10626 10621 10616 10611 10606 10600 10595 10591 10587 10584 10579 10575 10571 10568 10565 10561 10559 10558
10655 10654 10653 10653 10653 10653 10654 10655 10656 10657 10659 10660 10661 10661 10661 10662 10661 10660 10659 10658 10656 10654 10652 10648 10643 10639 10635 10629 10621 10616 10612 10608 10603 10597 10592 10586 10580 10574 10569 10563 10557 10552 10546 10543 10541 10538 10538
10659 10657 10656 10656 10656 10656 10657 10658 10659 10660 10661 10662 10662 10663 10663 10662 10661 10659 10658 10657 10654 10652 10649 10644 10638 10633 10627 10621 10615 10607 10601 10596 10592 10586 10581 10573 10565 10558 10550 10543 10537 10528 10522 10516 10517 10511 10511
10662 10661 10660 10660 10660 10660 10660 10661 10662 10663 10663 10664 10664 10664 10663 10662 10661 10660 10659 10657 10654 10649 10645 10640 10633 10624 10617 10609 10603 10599 10594 10586 10579 10573 10566 10559 10551 10541 10533 10523 10517 10509 10497 10492 10484 10483 10476
10666 10664 10663 10663 10664 10664 10664 10665 10665 10666 10666 10666 10665 10665 10664 10664 10662 10661 10659 10656 10651 10646 10640 10633 10625 10615 10606 10599 10592 10586 10581 10575 10568 10562 10556 10547 10539 10529 10519 10508 10494 10487 10476 10462 10453 10448 10447
10670 10669 10668 10667 10668 10668 10668 10668 10668 10668 10668 10668 10668 10667 10666 10665 10663 10661 10658 10653 10648 10641 10634 10626 10616 10607 10598 10591 10585 10581 10575 10569 10560 10550 10540 10530 10520 10511 10501 10488 10474 10459 10446 10432 10421 10412 10410
10673 10673 10672 10672 10671 10672 10671 10671 10671 10670 10670 10669 10669 10668 10667 10664 10663 10660 10656 10650 10643 10637 10628 10619 10610 10601 10595 10588 10581 10575 10566 10556 10546 10538 10529 10520 10510 10497 10485 10471 10453 10436 10418 10401 10391 10380 10377
10675 10675 10675 10675 10674 10674 10673 10673 10672 10672 10671 10671 10670 10669 10667 10665 10663 10660 10655 10649 10641 10633 10624 10615 10606 10598 10589 10581 10573 10566 10558 10551 10542 10533 10522 10510 10496 10483 10467 10450 10429 10406 10390 10376 10365 10352 10345
10677 10676 10677 10676 10676 10676 10675 10674 10674 10673 10673 10672 10671 10669 10667 10665 10663 10659 10653 10647 10639 10630 10620 10610 10602 10593 10586 10578 10571 10565 10558 10547 10536 10523 10511 10497 10482 10464 10446 10426 10403 10378 10360 10348 10336 10322 10313
10678 10678 10678 10677 10677 10677 10676 10676 10675 10674 10674 10673 10672 10670 10668 10665 10662 10658 10652 10644 10635 10627 10617 10607 10600 10591 10582 10579 10570 10561 10550 10540 10527 10514 10498 10482 10467 10449 10428 10408 10382 10354 10337 10325 10312 10298 10288
10678 10677 10678 10677 10677 10677 10677 10676 10676 10675 10674 10674 10672 10670 10668 10665 10662 10657 10651 10643 10635 10627 10617 10609 10600 10592 10583 10573 10565 10555 10546 10533 10520 10508 10493 10474 10457 10436 10413 10387 10364 10337 10315 10307 10292 10279 10272
10677 10676 10676 10676 10676 10677 10677 10676 10676 10675 10674 10673 10672 10670 10668 10665 10661 10655 10649 10642 10636 10628 10619 10611 10601 10592 10583 10575 10565 10555 10542 10527 10511 10495 10478 10465 10445 10425 10403 10380 10352 10327 10304 10285 10275 10265 10254
10676 10675 10674 10673 10674 10675 10675 10675 10675 10675 10674 10673 10671 10669 10666 10663 10659 10655 10649 10642 10636 10629 10620 10611 10601 10592 10585 10576 10564 10551 10537 10521 10506 10491 10475 10455 10432 10412 10390 10366 10339 10317 10297 10281 10267 10254 10243
10674 10673 10672 10671 10671 10673 10673 10673 10674 10674 10674 10672 10670 10668 10666 10662 10658 10654 10648 10643 10635 10628 10619 10610 10601 10592 10584 10573 10561 10547 10533 10519 10504 10487 10467 10448 10426 10404 10381 10354 10332 10311 10289 10274 10256 10245 10235
10670 10670 10669 10668 10668 10669 10670 10671 10672 10672 10672 10671 10669 10667 10665 10661 10657 10652 10647 10642 10636 10628 10619 10610 10599 10589 10579 10569 10558 10545 10531 10517 10502 10484 10464 10442 10423 10400 10374 10351 10324 10303 10285 10264 10249 10234 10225
10667 10666 10665 10664 10664 10664 10665 10667 10668 10670 10670 10670 10668 10666 10663 10660 10656 10651 10647 10642 10636 10627 10619 10609 10599 10589 10578 10568 10557 10543 10529 10515 10499 10481 10463 10446 10424 10398 10373 10351 10329 10305 10282 10261 10247 10231 10220
10663 10662 10661 10660 10660 10660 10661 10663 10665 10667 10668 10667 10666 10664 10662 10658 10655 10650 10646 10641 10635 10626 10617 10608 10598 10589 10579 10567 10556 10544 10528 10512 10496 10480 10462 10445 10426 10407 10383 10360 10333 10311 10286 10265 10247 10231 10218
10659 10659 10658 10657 10656 10656 10656 10658 10660 10662 10664 10664 10664 10662 10660 10656 10653 10649 10645 10640 10633 10625 10617 10607 10597 10587 10577 10567 10556 10543 10528 10512 10495 10477 10459 10441 10423 10402 10370 10349 10321 10306 10288 10269 10252 10236 10219
10653 10653 10653 10653 10652 10652 10652 10654 10656 10658 10660 10661 10660 10659 10657 10654 10651 10647 10643 10638 10632 10624 10615 10606 10597 10586 10575 10564 10553 10541 10528 10512 10495 10478 10460 10443 10425 10405 10383 10363 10341 10317 10295 10275 10258 10239 10224
10648 10648 10648 10648 10648 10647 10647 10648 10651 10653 10655 10656 10656 10655 10653 10651 10648 10644 10640 10635 10629 10622 10614 10605 10596 10586 10575 10564 10551 10539 10527 10513 10496 10479 10462 10444 10425 10406 10387 10369 10347 10326 10306 10282 10263 10248 10229
10642 10641 10641 10642 10642 10642 10642 10643 10645 10648 10650 10652 10652 10651 10649 10647 10645 10641 10637 10632 10627 10620 10612 10603 10594 10584 10573 10562 10550 10538 10525 10512 10498 10481 10465 10446 10429 10411 10393 10373 10355 10336 10318 10292 10270 10252 10235
10635 10635 10634 10634 10634 10634 10635 10636 10639 10642 10644 10646 10647 10646 10645 10644 10641 10638 10634 10629 10624 10617 10610 10602 10593 10583 10572 10561 10550 10538 10525 10511 10497 10483 10468 10450 10433 10416 10399 10381 10363 10345 10319 10302 10281 10258 10240
10629 10628 10626 10625 10626 10627 10629 10630 10633 10635 10638 10640 10641 10641 10640 10639 10637 10634 10630 10626 10620 10614 10608 10600 10591 10582 10571 10560 10550 10538 10526 10513 10499 10485 10471 10454 10439 10421 10403 10388 10368 10345 10327 10307 10287 10267 10249
10622 10620 10618 10617 10618 10621 10623 10624 10627 10628 10632 10634 10636 10637 10636 10634 10633 10629 10626 10623 10617 10612 10605 10598 10590 10580 10570 10560 10550 10539 10528 10516 10501 10487 10471 10456 10441 10425 10408 10391 10374 10355 10339 10320 10301 10281 10261
10615 10614 10613 10612 10613 10615 10617 10619 10621 10623 10625 10628 10630 10631 10631 10630 10628 10625 10622 10618 10614 10608 10602 10595 10586 10578 10568 10558 10548 10537 10524 10512 10501 10488 10473 10458 10443 10427 10412 10394 10378 10362 10346 10330 10315 10301 10272
10608 10608 10607 10607 10608 10610 10612 10613 10615 10617 10619 10621 10623 10625 10625 10625 10623 10620 10617 10614 10609 10603 10598 10591 10583 10575 10566 10557 10547 10537 10525 10512 10500 10487 10474 10461 10447 10432 10417 10400 10384 10367 10352 10336 10321 10300 10283
10601 10601 10601 10602 10603 10604 10606 10607 10609 10611 10613 10615 10617 10618 10619 10619 10618 10615 10612 10609 10604 10599 10593 10587 10580 10573 10564 10555 10545 10536 10526 10513 10499 10485 10472 10459 10447 10434 10419 10405 10390 10373 10357 10340 10324 10309 10295
10595 10595 10596 10596 10597 10598 10600 10602 10603 10605 10607 10609 10611 10612 10613 10613 10612 10609 10606 10603 10600 10595 10588 10583 10576 10569 10561 10553 10544 10533 10522 10510 10498 10487 10472 10459 10446 10432 10418 10405 10391 10377 10362 10348 10333 10318 10301